SCP
0 0 0 0 0 0 0 0 0 0 0 0 0 0 0 0 0 -0 -0 0 0 0 0 0 0 0 0 0 0 0 0 0 0 0 0 0 0 0 0 0 0 0 0 0
0 0 0 0 0 0 0 0 0 0 0 0 0 0 0 0 0 0 0 0 0 0 0 0 0 0 0 0 0 0 0 0 0 0 0 0 0 0 0 0 0 0 0 0
0 0 0 0 0 0 0 0 0 0 0 0 0 0 0 0 0 0 0 0 0 0 0 0 0 0 0 0 0 0 0 0 0 0 0 0 0 0 0 0 0 0 0 0
0 0 0 0 0 0 0 0 0 0 0 0 0 0 0 0 0 0 0 0 0 0 0 0 0 0 0 0 0 0 0 0 0 0 0 0 0 0 0 0 0 0 0 0
0 0 0 0 0 0 0 0 0 0 0 0 0 0 0 0 0 0 0 0 0 0 0 0 0 0 0 0 0 0 0 0 0 0 0 0 0 0 0 0 0 0 0 0
0 0 0 0 0 0 0 0 0 0 0 0 0 0 0 0 0 0 0 0 0 0 0 0 0 0 0 0 0 0 0 0 0 0 0 0 0 0 0 0 0 0 0 0
0 0 0 0 0 0 0 0 0 0 0 0 0 0 0 0 0 0 0 0 0 0 0 0 0 0 0 0 0 0 0 0 0 0 0 0 0 0 0 0 0 0 0 0
0 0 0 0 0 0 0 0 0 0 0 0 0 0 0 0 0 0 0 0 0 0 0 0 0 0 0 0 0 0 0 0 0 0 0 0 0 0 0 0 0 0 0 0
0 0 0 0 0 0 0 0 0 0 0 0 0 0 0 0 0 0 0 0 0 0 0 0 0 0 0 0 0 0 0 0 0 0 0 0 0 0 0 0 0 0 0 0
0 0 0 0 0 0 0 0 0 0 0 0 0 0 0 0 0 0 0 0 0 0 0 0 0 0 0 0 0 0 0 0 0 0 0 0 0 0 0 0 0 0 0 0
0 0 0 0 0 0 0 0 0 0 0 0 0 0 0 0 0 0 0 0 0 0 0 0 0 0 0 0 0 0 0 0 0 0 0 0 0 0 0 0 0 0 0 0
0 0 0 0 0 0 0 0 0 0 0 0 0 0 0 0 0 0 0 0 0 0 0 0 0 0 0 0 0 0 0 0 0 0 0 0 0 0 0 0 0 0 0 0
0 0 0 0 0 0 0 0 0 0 0 0 0 0 0 0 0 0 0 0 0 0 0 0 0 0 0 0 0 0 0 0 0 0 0 0 0 0 0 0 0 0 0 0
0 0 0 0 0 0 0 0 0 0 0 0 0 0 0 0 0 0 0 0 0 0 0 0 0 0 0 0 0 0 0 0 0 0 0 0 0 0 0 0 0 0 0 0
0 0 0 0 0 0 0 0 0 0 0 0 0 0 0 0 0 0 0 0 0 0 0 0 0 0 0 0 0 0 0 0 0 0 0 0 0 0 0 0 0 0 0 0
0 0 0 0 0 0 0 0 0 0 0 0 0 0 0 0 0 0 0 0 0 0 0 0 0 0 0 0 0 0 0 0 0 0 0 0 0 0 0 0 0 0 0 0
0 0 0 0 0 0 0 0 0 0 0 0 0 0 0 0 0 0 0 0 0 0 0 0 0 0 0 0 0 0 0 0 0 0 0 0 0 0 0 0 0 0 0 0
0 0 0 0 0 0 0 0 0 0 0 0 0 0 0 0 0 0 0 0 0 0 0 0 0 0 0 0 0 0 0 0 0 0 0 0 0 0 0 0 0 0 0 0
0 0 0 0 0 0 0 0 0 0 0 0 0 0 0 0 0 0 0 0 0 0 0 0 0 0 0 0 0 0 0 0 0 0 0 0 0 0 0 0 0 0 0 0
0 0 0 0 0 0 0 0 0 0 0 0 0 0 0 0 0 0 0 0 0 0 0 0 0 0 0 0 0 0 0 0 0 0 0 0 0 0 0 0 0 0 0 0
0 0 0 0 0 0 0 0 0 0 0 0 0 0 0 0 0 0 0 0 0 0 0 0 0 0 0 0 0 0 0 0 0 0 0 0 0 0 0 0 0 0 0 0
0 0 0 0 0 0 0 0 0 0 0 0 0 0 0 0 0 0 0 0 0 0 0 0 0 0 0 0 0 0 0 0 0 0 0 0 0 0 0 0 0 0 0 0
0 0 0 0 0 0 0 0 0 0 0 0 0 0 0 0 0 0 0 0 0 0 0 0 0 0 0 0 0 0 0 0 0 0 0 0 0 0 0 0 0 0 0 0
0 0 0 0 0 0 0 0 0 0 0 0 0 0 0 0 0 0 0 0 0 0 0 0 0 0 0 0 0 0 0 0 0 0 0 0 0 0 0 0 0 0 0 0
0 0 0 0 0 0 0 0 0 0 0 0 0 0 0 0 0 0 0 0 0 0 0 0 0 0 0 0 0 0 0 0 0 0 0 0 0 0 0 0 0 0 0 0
0 0 0 0 0 0 -0 0 0 -0 0 0 0 0 0 0 0 0 0 0 0 0 0 0 0 0 0 0 0 0 0 0 0 0 0 0 0 0 0 0 0 0 0 0
0 0 0 0 0 0 0 0 0 0 0 0 0 0 0 0 0 0 0 0 0 0 0 0 0 0 0 0 0 0 0 0 0 0 0 0 0 0 0 0 0 0 0 0
Wind_Speed_500mb
31 31 25 24 25 25 20 11 6 8 11 4 3 5 7 1 3 5 8 5 11 7 6 5 12 13 7 10 25 19 7 5 8 5 7 2 3 10 8 7 8 4 3 6
27 24 23 20 20 21 23 14 12 8 8 5 4 4 3 2 4 6 3 5 9 5 4 3 5 5 2 8 18 21 17 5 10 9 6 4 6 7 10 14 5 11 8 5
29 25 23 17 15 15 19 8 5 4 2 3 3 3 2 6 6 12 10 7 8 6 4 3 1 2 3 2 7 7 18 6 9 17 15 9 12 13 14 9 7 14 6 3
31 27 20 17 11 10 13 4 1 2 4 4 4 4 4 2 5 7 9 2 10 8 4 3 2 1 1 6 10 7 6 8 5 6 6 8 18 23 18 9 19 8 13 10
35 29 21 18 12 5 8 4 5 6 6 10 6 2 1 4 6 6 3 5 14 7 7 4 3 4 1 2 5 4 4 8 8 6 8 15 12 13 13 11 13 10 10 9
47 36 31 21 15 6 4 4 6 6 3 6 4 2 4 3 13 7 16 16 8 5 5 16 9 4 9 6 3 5 5 12 4 11 5 11 6 14 13 8 8 11 7 4
45 40 35 28 21 14 11 5 4 3 3 3 3 6 10 8 16 8 16 12 4 7 11 2 5 20 20 21 22 5 10 8 5 6 6 8 6 4 7 9 11 11 3 7
35 40 40 36 27 19 16 12 5 2 5 5 6 13 9 17 12 6 8 6 20 20 3 3 5 3 2 11 17 20 8 9 8 7 6 4 2 8 10 9 6 12 8 14
34 36 35 32 31 25 19 15 11 4 4 3 6 7 9 7 9 9 6 8 18 6 1 5 3 4 7 4 4 7 10 14 10 3 5 8 2 5 3 7 9 16 19 22
34 33 40 44 34 32 25 15 14 8 5 5 3 2 5 7 5 6 9 22 17 20 2 5 3 4 3 8 7 2 5 8 5 5 3 6 2 10 3 13 7 5 18 18
27 35 36 43 43 37 29 24 14 13 7 15 10 9 5 8 7 6 16 6 8 10 7 3 3 3 4 5 2 5 2 6 5 5 3 10 8 3 9 5 10 3 9 11
26 31 36 42 41 42 31 22 21 14 19 13 17 26 28 25 19 13 12 5 4 8 3 0 0 4 2 4 5 0 5 2 3 6 1 2 6 7 10 1 0 4 6 9
28 28 36 37 41 45 40 29 17 12 10 24 28 20 12 19 23 18 6 2 8 6 4 1 3 2 2 6 5 4 3 3 4 4 6 5 5 3 2 3 6 7 8 6
29 28 29 36 41 42 35 30 25 14 5 7 7 6 9 15 21 22 22 23 17 12 7 2 2 2 3 2 3 3 3 14 9 5 9 10 19 19 15 14 13 9 4 1
31 28 27 31 41 35 33 31 32 24 11 6 15 28 7 11 22 24 25 21 13 8 4 2 2 3 4 4 1 6 13 9 8 9 13 14 15 18 30 25 17 12 10 9
33 28 28 32 46 38 34 13 30 28 21 7 6 10 7 8 18 23 27 20 13 6 2 0 1 1 2 5 6 8 22 29 26 13 12 18 24 24 31 24 21 21 18 11
34 30 30 37 53 43 22 8 9 42 21 6 9 8 4 2 12 15 19 18 6 3 2 2 2 3 3 4 9 13 27 28 29 27 24 21 28 22 27 24 27 21 16 16
37 29 32 38 51 44 17 3 5 32 26 7 4 5 7 3 3 6 9 9 8 2 1 3 5 4 5 7 22 26 31 29 31 32 32 28 22 21 24 27 24 23 20 18
39 34 32 38 45 19 24 5 3 38 10 4 4 4 2 2 3 7 6 7 5 4 7 7 7 5 10 13 14 18 18 12 21 29 19 26 32 22 24 29 28 21 16 17
46 49 19 18 24 28 31 8 8 11 7 6 6 5 3 1 2 4 6 2 3 5 4 6 7 8 21 17 23 32 34 31 28 21 13 20 27 24 24 18 18 17 18 20
55 18 10 42 40 21 9 5 7 7 5 11 12 19 5 2 1 4 2 4 4 5 4 5 4 6 0 18 19 20 18 11 13 8 4 4 7 19 17 14 13 14 17 21
33 25 45 43 13 8 8 8 9 7 9 14 13 22 20 4 3 3 5 2 3 5 3 5 4 3 6 11 19 23 23 19 17 14 16 17 16 12 5 7 15 23 31 38
55 22 14 11 7 8 13 16 7 9 12 15 11 7 13 15 4 4 3 6 4 1 4 4 7 9 9 12 16 23 25 25 23 20 16 12 11 13 19 26 31 37 40 39
12 10 12 11 10 13 11 18 16 16 14 27 30 17 10 8 8 4 5 3 3 4 5 12 4 17 15 12 11 9 12 13 14 14 17 21 25 27 28 32 32 29 30 33
7 9 10 11 8 12 13 16 12 14 19 31 23 11 6 6 6 3 3 7 6 9 8 1 12 19 16 10 5 6 10 14 18 21 24 26 24 26 30 26 31 31 27 34
5 5 7 5 9 12 11 12 16 22 31 35 8 7 7 5 7 6 8 5 12 4 4 8 22 19 10 3 5 10 15 18 18 21 21 21 22 24 29 31 26 23 34 31
5 4 5 9 2 5 10 18 24 29 31 14 6 7 5 10 7 9 9 9 3 2 7 17 19 12 4 4 10 15 17 17 16 19 24 24 23 23 22 23 27 24 20 20
Wind_Direction_500mb
276 279 288 301 315 326 320 301 277 261 329 299 308 194 203 279 292 284 266 241 244 252 304 202 205 215 250 209 153 178 160 129 150 83 327 204 106 132 133 164 173 57 336 176
263 271 276 299 313 334 336 311 270 270 251 236 225 271 235 244 269 267 280 262 232 211 294 313 220 196 216 199 178 165 170 180 133 116 146 179 130 100 102 100 123 173 189 150
249 259 270 286 306 328 334 314 299 313 220 92 309 331 251 260 272 256 247 270 300 284 264 243 241 205 10 146 190 144 131 117 182 190 177 145 148 139 149 135 163 157 212 151
238 252 255 266 289 319 334 304 2 358 347 64 355 304 338 280 304 267 246 221 238 287 276 233 163 99 313 70 146 78 147 151 121 46 135 148 147 151 160 141 145 179 154 213
227 235 236 247 264 290 313 315 350 337 295 300 268 337 116 278 310 255 283 227 336 304 253 306 239 168 233 71 109 86 18 131 131 86 71 140 144 154 149 129 158 136 164 244
234 233 219 228 240 234 271 293 317 326 326 334 260 77 329 254 350 266 257 310 293 302 24 335 341 46 90 91 136 112 82 136 144 145 75 126 158 203 189 147 163 155 191 102
229 232 215 210 224 228 239 266 317 316 292 296 357 311 326 290 309 266 304 313 295 354 310 202 52 81 84 71 53 58 124 96 62 115 128 204 72 282 225 174 171 192 152 178
223 221 216 205 207 220 234 241 240 297 286 302 303 329 315 316 325 258 257 308 337 310 244 120 112 310 56 48 36 32 48 111 90 151 185 344 148 183 159 190 190 200 175 148
214 214 206 195 204 211 224 234 224 228 296 209 308 320 334 342 337 324 295 336 352 357 121 96 126 184 126 3 31 73 51 56 103 2 196 197 45 33 132 140 265 194 186 177
210 203 203 189 195 207 215 223 219 208 255 271 323 318 333 345 345 296 324 334 353 5 66 100 139 127 110 171 191 73 40 41 92 131 197 285 354 323 326 213 298 310 205 184
209 203 200 195 196 198 207 219 217 207 249 271 266 261 283 342 19 355 331 300 14 356 53 5 125 130 102 110 335 58 101 152 145 113 165 263 19 246 222 346 318 289 177 186
207 202 199 199 198 189 199 216 219 226 236 260 278 268 266 272 286 287 323 349 333 19 28 81 109 110 114 65 174 207 220 300 99 220 334 348 295 262 305 228 154 145 167 198
204 201 198 200 200 200 208 209 205 239 263 286 275 278 264 254 258 256 252 7 15 22 17 103 75 127 186 162 198 133 96 109 120 193 185 244 269 276 213 207 200 206 215 232
201 200 195 193 194 190 200 198 204 202 259 279 288 343 304 256 238 229 234 260 308 330 335 330 68 65 216 128 67 275 66 157 162 229 245 256 245 231 213 207 198 185 184 255
197 197 194 192 177 175 187 199 204 212 224 306 297 317 31 225 228 233 230 237 257 296 290 293 16 89 169 72 230 222 194 169 202 244 219 241 252 273 231 212 206 222 238 255
189 189 185 178 167 168 164 203 214 214 218 283 294 321 313 316 218 227 212 199 225 224 215 314 276 254 284 225 227 260 228 234 249 279 300 244 279 262 218 219 237 242 240 246
181 185 177 170 167 164 163 175 188 205 189 243 281 296 314 82 113 152 173 189 189 176 174 227 272 195 210 235 244 259 265 281 287 284 270 269 254 221 220 248 256 241 227 247
175 178 170 170 172 174 184 153 179 182 181 219 265 279 310 171 154 113 135 153 172 175 174 239 237 176 220 251 240 260 277 286 287 284 270 250 243 226 250 248 223 213 225 243
169 163 154 155 167 181 184 129 129 171 183 215 209 252 146 355 111 113 120 158 186 203 224 217 196 185 226 241 273 288 303 304 309 316 291 239 240 254 253 216 209 213 226 248
151 143 126 146 174 157 139 128 137 168 215 222 248 210 249 340 153 101 134 108 154 222 171 146 224 248 265 289 299 295 291 284 273 280 269 238 233 230 200 199 209 226 245 252
150 155 134 149 150 135 156 160 162 185 202 214 227 200 215 178 192 122 105 145 172 235 134 247 200 252 199 338 338 334 330 251 211 226 300 221 205 183 189 206 231 246 258 267
145 136 135 139 137 145 163 192 152 208 205 201 205 209 197 183 148 159 172 217 179 240 124 232 231 209 29 45 51 58 71 93 110 108 110 109 121 136 174 258 278 282 283 283
137 121 149 148 154 172 194 178 178 198 202 181 159 139 181 203 242 90 186 223 228 134 215 240 245 127 117 101 91 88 88 88 87 77 64 44 12 333 312 304 301 299 298 301
132 136 141 193 179 201 191 196 180 203 167 164 159 145 147 153 155 169 229 126 218 221 231 228 145 160 139 125 107 100 72 54 33 11 352 338 329 324 323 320 315 315 313 312
131 159 177 185 196 209 224 209 198 176 162 152 148 104 120 124 126 189 144 188 225 222 237 349 157 153 148 137 101 35 8 358 351 345 341 334 332 331 328 327 324 319 321 326
122 157 144 162 191 213 210 201 202 175 160 160 156 137 161 148 136 149 190 195 221 230 217 156 153 155 150 119 1 341 341 343 343 343 344 343 334 325 321 323 327 329 330 318
165 241 232 178 306 237 209 196 192 182 166 178 154 154 121 127 157 194 191 222 272 305 144 150 156 161 182 323 336 337 336 336 334 333 333 331 325 330 336 339 333 337 339 342
Wind_Speed_850mb
31 31 25 24 25 25 20 11 6 8 11 4 3 5 7 1 3 5 8 5 11 7 6 5 12 13 7 10 25 19 7 5 8 5 7 2 3 10 8 7 8 4 3 6
27 24 23 20 20 21 23 14 12 8 8 5 4 4 3 2 4 6 3 5 9 5 4 3 5 5 2 8 18 21 17 5 10 9 6 4 6 7 10 14 5 11 8 5
29 25 23 17 15 15 19 8 5 4 2 3 3 3 2 6 6 12 10 7 8 6 4 3 1 2 3 2 7 7 18 6 9 17 15 9 12 13 14 9 7 14 6 3
31 27 20 17 11 10 13 4 1 2 4 4 4 4 4 2 5 7 9 2 10 8 4 3 2 1 1 6 10 7 6 8 5 6 6 8 18 23 18 9 19 8 13 10
35 29 21 18 12 5 8 4 5 6 6 10 6 2 1 4 6 6 3 5 14 7 7 4 3 4 1 2 5 4 4 8 8 6 8 15 12 13 13 11 13 10 10 9
47 36 31 21 15 6 4 4 6 6 3 6 4 2 4 3 13 7 16 16 8 5 5 16 9 4 9 6 3 5 5 12 4 11 5 11 6 14 13 8 8 11 7 4
45 40 35 28 21 14 11 5 4 3 3 3 3 6 10 8 16 8 16 12 4 7 11 2 5 20 20 21 22 5 10 8 5 6 6 8 6 4 7 9 11 11 3 7
35 40 40 36 27 19 16 12 5 2 5 5 6 13 9 17 12 6 8 6 20 20 3 3 5 3 2 11 17 20 8 9 8 7 6 4 2 8 10 9 6 12 8 14
34 36 35 32 31 25 19 15 11 4 4 3 6 7 9 7 9 9 6 8 18 6 1 5 3 4 7 4 4 7 10 14 10 3 5 8 2 5 3 7 9 16 19 22
34 33 40 44 34 32 25 15 14 8 5 5 3 2 5 7 5 6 9 22 17 20 2 5 3 4 3 8 7 2 5 8 5 5 3 6 2 10 3 13 7 5 18 18
27 35 36 43 43 37 29 24 14 13 7 15 10 9 5 8 7 6 16 6 8 10 7 3 3 3 4 5 2 5 2 6 5 5 3 10 8 3 9 5 10 3 9 11
26 31 36 42 41 42 31 22 21 14 19 13 17 26 28 25 19 13 12 5 4 8 3 0 0 4 2 4 5 0 5 2 3 6 1 2 6 7 10 1 0 4 6 9
28 28 36 37 41 45 40 29 17 12 10 24 28 20 12 19 23 18 6 2 8 6 4 1 3 2 2 6 5 4 3 3 4 4 6 5 5 3 2 3 6 7 8 6
29 28 29 36 41 42 35 30 25 14 5 7 7 6 9 15 21 22 22 23 17 12 7 2 2 2 3 2 3 3 3 14 9 5 9 10 19 19 15 14 13 9 4 1
31 28 27 31 41 35 33 31 32 24 11 6 15 28 7 11 22 24 25 21 13 8 4 2 2 3 4 4 1 6 13 9 8 9 13 14 15 18 30 25 17 12 10 9
33 28 28 32 46 38 34 13 30 28 21 7 6 10 7 8 18 23 27 20 13 6 2 0 1 1 2 5 6 8 22 29 26 13 12 18 24 24 31 24 21 21 18 11
34 30 30 37 53 43 22 8 9 42 21 6 9 8 4 2 12 15 19 18 6 3 2 2 2 3 3 4 9 13 27 28 29 27 24 21 28 22 27 24 27 21 16 16
37 29 32 38 51 44 17 3 5 32 26 7 4 5 7 3 3 6 9 9 8 2 1 3 5 4 5 7 22 26 31 29 31 32 32 28 22 21 24 27 24 23 20 18
39 34 32 38 45 19 24 5 3 38 10 4 4 4 2 2 3 7 6 7 5 4 7 7 7 5 10 13 14 18 18 12 21 29 19 26 32 22 24 29 28 21 16 17
46 49 19 18 24 28 31 8 8 11 7 6 6 5 3 1 2 4 6 2 3 5 4 6 7 8 21 17 23 32 34 31 28 21 13 20 27 24 24 18 18 17 18 20
55 18 10 42 40 21 9 5 7 7 5 11 12 19 5 2 1 4 2 4 4 5 4 5 4 6 0 18 19 20 18 11 13 8 4 4 7 19 17 14 13 14 17 21
33 25 45 43 13 8 8 8 9 7 9 14 13 22 20 4 3 3 5 2 3 5 3 5 4 3 6 11 19 23 23 19 17 14 16 17 16 12 5 7 15 23 31 38
55 22 14 11 7 8 13 16 7 9 12 15 11 7 13 15 4 4 3 6 4 1 4 4 7 9 9 12 16 23 25 25 23 20 16 12 11 13 19 26 31 37 40 39
12 10 12 11 10 13 11 18 16 16 14 27 30 17 10 8 8 4 5 3 3 4 5 12 4 17 15 12 11 9 12 13 14 14 17 21 25 27 28 32 32 29 30 33
7 9 10 11 8 12 13 16 12 14 19 31 23 11 6 6 6 3 3 7 6 9 8 1 12 19 16 10 5 6 10 14 18 21 24 26 24 26 30 26 31 31 27 34
5 5 7 5 9 12 11 12 16 22 31 35 8 7 7 5 7 6 8 5 12 4 4 8 22 19 10 3 5 10 15 18 18 21 21 21 22 24 29 31 26 23 34 31
5 4 5 9 2 5 10 18 24 29 31 14 6 7 5 10 7 9 9 9 3 2 7 17 19 12 4 4 10 15 17 17 16 19 24 24 23 23 22 23 27 24 20 20
Wind_Direction_850mb
276 279 288 301 315 326 320 301 277 261 329 299 308 194 203 279 292 284 266 241 244 252 304 202 205 215 250 209 153 178 160 129 150 83 327 204 106 132 133 164 173 57 336 176
263 271 276 299 313 334 336 311 270 270 251 236 225 271 235 244 269 267 280 262 232 211 294 313 220 196 216 199 178 165 170 180 133 116 146 179 130 100 102 100 123 173 189 150
249 259 270 286 306 328 334 314 299 313 220 92 309 331 251 260 272 256 247 270 300 284 264 243 241 205 10 146 190 144 131 117 182 190 177 145 148 139 149 135 163 157 212 151
238 252 255 266 289 319 334 304 2 358 347 64 355 304 338 280 304 267 246 221 238 287 276 233 163 99 313 70 146 78 147 151 121 46 135 148 147 151 160 141 145 179 154 213
227 235 236 247 264 290 313 315 350 337 295 300 268 337 116 278 310 255 283 227 336 304 253 306 239 168 233 71 109 86 18 131 131 86 71 140 144 154 149 129 158 136 164 244
234 233 219 228 240 234 271 293 317 326 326 334 260 77 329 254 350 266 257 310 293 302 24 335 341 46 90 91 136 112 82 136 144 145 75 126 158 203 189 147 163 155 191 102
229 232 215 210 224 228 239 266 317 316 292 296 357 311 326 290 309 266 304 313 295 354 310 202 52 81 84 71 53 58 124 96 62 115 128 204 72 282 225 174 171 192 152 178
223 221 216 205 207 220 234 241 240 297 286 302 303 329 315 316 325 258 257 308 337 310 244 120 112 310 56 48 36 32 48 111 90 151 185 344 148 183 159 190 190 200 175 148
214 214 206 195 204 211 224 234 224 228 296 209 308 320 334 342 337 324 295 336 352 357 121 96 126 184 126 3 31 73 51 56 103 2 196 197 45 33 132 140 265 194 186 177
210 203 203 189 195 207 215 223 219 208 255 271 323 318 333 345 345 296 324 334 353 5 66 100 139 127 110 171 191 73 40 41 92 131 197 285 354 323 326 213 298 310 205 184
209 203 200 195 196 198 207 219 217 207 249 271 266 261 283 342 19 355 331 300 14 356 53 5 125 130 102 110 335 58 101 152 145 113 165 263 19 246 222 346 318 289 177 186
207 202 199 199 198 189 199 216 219 226 236 260 278 268 266 272 286 287 323 349 333 19 28 81 109 110 114 65 174 207 220 300 99 220 334 348 295 262 305 228 154 145 167 198
204 201 198 200 200 200 208 209 205 239 263 286 275 278 264 254 258 256 252 7 15 22 17 103 75 127 186 162 198 133 96 109 120 193 185 244 269 276 213 207 200 206 215 232
201 200 195 193 194 190 200 198 204 202 259 279 288 343 304 256 238 229 234 260 308 330 335 330 68 65 216 128 67 275 66 157 162 229 245 256 245 231 213 207 198 185 184 255
197 197 194 192 177 175 187 199 204 212 224 306 297 317 31 225 228 233 230 237 257 296 290 293 16 89 169 72 230 222 194 169 202 244 219 241 252 273 231 212 206 222 238 255
189 189 185 178 167 168 164 203 214 214 218 283 294 321 313 316 218 227 212 199 225 224 215 314 276 254 284 225 227 260 228 234 249 279 300 244 279 262 218 219 237 242 240 246
181 185 177 170 167 164 163 175 188 205 189 243 281 296 314 82 113 152 173 189 189 176 174 227 272 195 210 235 244 259 265 281 287 284 270 269 254 221 220 248 256 241 227 247
175 178 170 170 172 174 184 153 179 182 181 219 265 279 310 171 154 113 135 153 172 175 174 239 237 176 220 251 240 260 277 286 287 284 270 250 243 226 250 248 223 213 225 243
169 163 154 155 167 181 184 129 129 171 183 215 209 252 146 355 111 113 120 158 186 203 224 217 196 185 226 241 273 288 303 304 309 316 291 239 240 254 253 216 209 213 226 248
151 143 126 146 174 157 139 128 137 168 215 222 248 210 249 340 153 101 134 108 154 222 171 146 224 248 265 289 299 295 291 284 273 280 269 238 233 230 200 199 209 226 245 252
150 155 134 149 150 135 156 160 162 185 202 214 227 200 215 178 192 122 105 145 172 235 134 247 200 252 199 338 338 334 330 251 211 226 300 221 205 183 189 206 231 246 258 267
145 136 135 139 137 145 163 192 152 208 205 201 205 209 197 183 148 159 172 217 179 240 124 232 231 209 29 45 51 58 71 93 110 108 110 109 121 136 174 258 278 282 283 283
137 121 149 148 154 172 194 178 178 198 202 181 159 139 181 203 242 90 186 223 228 134 215 240 245 127 117 101 91 88 88 88 87 77 64 44 12 333 312 304 301 299 298 301
132 136 141 193 179 201 191 196 180 203 167 164 159 145 147 153 155 169 229 126 218 221 231 228 145 160 139 125 107 100 72 54 33 11 352 338 329 324 323 320 315 315 313 312
131 159 177 185 196 209 224 209 198 176 162 152 148 104 120 124 126 189 144 188 225 222 237 349 157 153 148 137 101 35 8 358 351 345 341 334 332 331 328 327 324 319 321 326
122 157 144 162 191 213 210 201 202 175 160 160 156 137 161 148 136 149 190 195 221 230 217 156 153 155 150 119 1 341 341 343 343 343 344 343 334 325 321 323 327 329 330 318
165 241 232 178 306 237 209 196 192 182 166 178 154 154 121 127 157 194 191 222 272 305 144 150 156 161 182 323 336 337 336 336 334 333 333 331 325 330 336 339 333 337 339 342